Location: Innsbruck
(47.2657°N, 11.3914°E)
Time: 13:24:11
(UTC+02:00)

BlueWalker 3 - Visible Passes

Search period start: 20 April 2024 00:00
Search period end: 30 April 2024 00:00
Orbit: 485 x 495 km, 53.2° (Epoch: 20 April)

Date Brightness Start Highest point End Pass type
(mag) Time Alt. Az. Time Alt. Az. Time Alt. Az.
20 Apr 2.3 21:46:05 10° WSW 21:49:52 63° NNW 21:53:41 10° ENE visible
20 Apr 3.5 23:25:04 10° WNW 23:28:35 33° N 23:29:01 32° NNE visible
21 Apr 2.3 21:21:24 10° WSW 21:25:12 66° NNW 21:29:01 10° ENE visible
21 Apr 3.5 23:00:23 10° WNW 23:03:54 33° N 23:05:29 23° NE visible
22 Apr 4.6 00:39:02 10° WNW 00:39:55 16° NW 00:39:55 16° NW visible
22 Apr 2.3 20:56:42 10° WSW 21:00:30 68° NNW 21:04:19 10° ENE visible
22 Apr 3.5 22:35:41 10° WNW 22:39:11 33° N 22:41:47 16° NE visible
23 Apr 4.1 00:14:20 10° WNW 00:16:12 25° NW 00:16:12 25° NW visible
23 Apr 3.5 22:10:57 10° WNW 22:14:26 33° N 22:17:57 10° ENE visible
23 Apr 3.5 23:49:37 10° WNW 23:52:21 35° NNW 23:52:21 35° NNW visible
24 Apr 3.5 21:46:11 10° WNW 21:49:41 33° N 21:53:12 10° ENE visible
24 Apr 3.0 23:24:52 10° WNW 23:28:26 41° N 23:28:26 41° N visible
25 Apr 3.5 21:21:23 10° WNW 21:24:53 34° N 21:28:25 10° ENE visible
25 Apr 3.0 23:00:06 10° WNW 23:03:44 40° NNE 23:04:29 36° NE visible
26 Apr 4.6 00:38:20 10° WNW 00:38:53 14° WNW 00:38:53 14° WNW visible
26 Apr 3.5 20:56:34 10° WNW 21:00:05 34° N 21:03:36 10° ENE visible
26 Apr 3.0 22:35:18 10° WNW 22:38:55 39° NNE 22:40:28 27° ENE visible
27 Apr 4.1 00:13:32 10° WNW 00:14:52 20° WNW 00:14:52 20° WNW visible
27 Apr 3.1 22:10:28 10° WNW 22:14:05 39° NNE 22:16:25 19° ENE visible
27 Apr 3.5 23:48:42 10° WNW 23:50:49 31° WNW 23:50:49 31° WNW visible
28 Apr 3.1 21:45:37 10° WNW 21:49:13 38° NNE 21:52:22 13° E visible
28 Apr 2.6 23:23:51 10° WNW 23:26:45 49° WNW 23:26:45 49° WNW visible
29 Apr 3.1 21:20:44 10° WNW 21:24:18 37° NNE 21:27:54 10° E visible
29 Apr 1.8 22:58:58 10° WNW 23:02:41 76° SW 23:02:41 76° SW visible
